WD6AWP Weather Reports


time (UTC)temp
F
wind
direction
speed
knots
gust
knots
rain 1hr
in
rain 24hr
in
rain mn
in
humidity
%
barometer
mb
20260902023045 70 271 5.2 10.4 0.00 0.00 0.00 81 1013.3
20260902021543 71 263 7.0 12.2 0.00 0.00 0.00 81 1013.4
20260902020040 71 253 8.7 15.6 0.00 0.00 0.00 81 1013.5
20260902014543 72 289 9.6 15.6 0.00 0.00 0.00 79 1013.4
20260902013037 72 273 7.8 13.9 0.00 0.00 0.00 80 1013.3
20260902011543 73 308 10.4 15.6 0.00 0.00 0.00 78 1013.4
20260902010034 74 241 10.4 17.4 0.00 0.00 0.00 76 1013.5
20260902004533 74 265 8.7 17.4 0.00 0.00 0.00 77 1013.6
20260902003031 75 242 7.8 15.6 0.00 0.00 0.00 77 1013.6
20260902001529 75 234 8.7 17.4 0.00 0.00 0.00 76 1013.7
20260902000028 76 271 7.0 15.6 0.00 0.00 0.00 75 1013.8
20260901234527 76 273 11.3 16.5 0.00 0.00 0.00 75 1013.9
20260901233026 77 274 10.4 15.6 0.00 0.00 0.00 74 1013.9
20260901231526 77 269 7.0 16.5 0.00 0.00 0.00 74 1013.9
20260901230025 77 266 7.8 12.2 0.00 0.00 0.00 73 1013.9
20260901224524 77 269 6.1 14.8 0.00 0.00 0.00 74 1014.1
20260901223024 77 289 9.6 14.8 0.00 0.00 0.00 73 1014.1
20260901221523 77 244 7.0 15.6 0.00 0.00 0.00 74 1014.2
20260901220022 78 234 7.0 14.8 0.00 0.00 0.00 74 1014.4
20260901214537 78 271 7.8 14.8 0.00 0.00 0.00 72 1014.6
20260901213021 78 279 6.1 14.8 0.00 0.00 0.00 72 1014.7
20260901211522 78 266 6.1 13.9 0.00 0.00 0.00 73 1014.8
20260901210020 77 239 7.0 13.9 0.00 0.00 0.00 72 1014.9
20260901204522 77 281 9.6 14.8 0.00 0.00 0.00 71 1014.9
20260901203018 78 286 7.8 13.0 0.00 0.00 0.00 71 1014.9
20260901201517 78 241 8.7 13.0 0.00 0.00 0.00 70 1015.1
20260901200017 78 265 7.0 13.0 0.00 0.00 0.00 72 1015.2
20260901194514 77 279 6.1 12.2 0.00 0.00 0.00 72 1015.3
20260901193012 77 253 5.2 12.2 0.00 0.00 0.00 72 1015.4
20260901191525 77 234 4.3 10.4 0.00 0.00 0.00 72 1015.6
20260901190010 77 292 6.1 11.3 0.00 0.00 0.00 71 1015.6
20260901184508 77 275 6.1 9.6 0.00 0.00 0.00 73 1015.7
20260901183007 76 261 4.3 9.6 0.00 0.00 0.00 74 1015.8
20260901181507 77 230 4.3 7.8 0.00 0.00 0.00 73 1015.7
20260901180005 77 250 3.5 9.6 0.00 0.00 0.00 73 1015.8
20260901174504 76 244 2.6 7.0 0.00 0.00 0.00 74 1015.8
20260901173002 77 271 3.5 8.7 0.00 0.00 0.00 73 1015.7
20260901171603 77 258 2.6 8.7 0.00 0.00 0.00 73 1015.6
20260901170056 76 268 2.6 8.7 0.00 0.00 0.00 73 1015.5
20260901164551 76 242 1.7 7.8 0.00 0.00 0.00 74 1015.4
20260901163055 76 261 0.9 6.1 0.00 0.00 0.00 75 1015.3
20260901161548 75 229 0.0 4.3 0.00 0.00 0.00 75 1015.2
20260901160044 76 263 2.6 7.0 0.00 0.00 0.00 74 1015.3
20260901154602 75 285 0.9 4.3 0.00 0.00 0.00 75 1015.4
20260901153044 74 300 0.0 0.0 0.00 0.00 0.00 76 1015.3
20260901151532 73 300 0.0 0.0 0.00 0.00 0.00 79 1015.2
20260901150027 71 300 0.0 0.0 0.00 0.00 0.00 83 1015.0
20260901144528 69 300 0.0 0.0 0.00 0.00 0.00 84 1015.0
20260901143021 68 300 0.0 0.0 0.00 0.00 0.00 86 1015.0
20260901141521 68 303 1.7 4.3 0.00 0.00 0.00 86 1015.0
20260901140017 68 306 0.9 4.3 0.00 0.00 0.00 86 1014.8
20260901134515 68 327 0.0 0.0 0.00 0.00 0.00 87 1014.5
20260901133015 68 327 1.7 4.3 0.00 0.00 0.00 87 1014.3
20260901131517 68 319 1.7 4.3 0.00 0.00 0.00 87 1014.2
20260901130014 68 311 0.0 0.0 0.00 0.00 0.00 88 1014.1
20260901124533 68 332 0.0 3.5 0.00 0.00 0.00 88 1014.1
20260901123013 68 360 0.0 2.6 0.00 0.00 0.00 88 1014.0
20260901121512 67 18 0.0 0.0 0.00 0.00 0.00 89 1013.9
20260901120011 67 12 0.0 0.9 0.00 0.00 0.00 90 1013.9
20260901114511 67 14 1.7 5.2 0.00 0.00 0.00 91 1013.7
20260901113010 67 27 1.7 3.5 0.00 0.00 0.00 91 1013.8
20260901111510 66 5 0.0 0.0 0.00 0.00 0.00 91 1014.0
20260901110009 66 5 0.9 2.6 0.00 0.00 0.00 92 1014.1
20260901104509 66 279 0.0 0.0 0.00 0.00 0.00 92 1014.2
20260901103007 66 279 0.0 0.0 0.00 0.00 0.00 92 1014.2
20260901101507 66 279 0.0 0.0 0.00 0.00 0.00 91 1014.1
20260901100005 66 278 0.0 0.0 0.00 0.00 0.00 91 1014.1
20260901094506 66 278 0.0 0.0 0.00 0.00 0.00 91 1014.1
20260901093002 66 278 0.0 0.0 0.00 0.00 0.00 91 1014.2
20260901091618 67 278 0.0 0.0 0.00 0.00 0.00 90 1014.0
20260901090105 67 279 0.0 0.0 0.00 0.00 0.00 90 1014.0
20260901084607 67 279 0.0 0.0 0.00 0.00 0.00 90 1014.0
20260901083104 68 279 0.0 0.0 0.00 0.00 0.00 90 1014.2
20260901081555 68 279 0.0 2.6 0.00 0.00 0.00 90 1014.1
20260901074552 68 278 0.0 0.0 0.00 0.00 0.00 89 1014.3
20260901073050 68 279 0.0 0.0 0.00 0.00 0.00 89 1014.4
20260901071549 68 279 0.0 3.5 0.00 0.00 0.00 89 1014.3
20260901070049 68 278 1.7 4.3 0.00 0.00 0.00 89 1014.3
20260901064544 69 278 0.0 0.0 0.00 0.00 0.00 89 1014.1
20260901063051 69 279 0.0 0.0 0.00 0.00 0.00 89 1014.0
20260901061543 69 279 0.0 6.1 0.00 0.00 0.00 88 1013.9
20260901060041 69 288 0.0 4.3 0.00 0.00 0.00 88 1013.8
20260901054540 69 284 2.6 6.1 0.00 0.00 0.00 88 1013.7
20260901053040 69 296 2.6 7.0 0.00 0.00 0.00 88 1013.7
20260901051539 69 280 0.9 6.1 0.00 0.00 0.00 87 1013.7
20260901050038 69 291 0.0 7.0 0.00 0.00 0.00 87 1013.5
20260901044538 70 288 1.7 7.0 0.00 0.00 0.00 87 1013.4
20260901043038 70 267 3.5 7.0 0.00 0.00 0.00 87 1013.4
20260901041537 70 286 1.7 7.0 0.00 0.00 0.00 86 1013.4
20260901040040 70 302 2.6 8.7 0.00 0.00 0.00 86 1013.2
20260901034539 71 289 0.0 6.1 0.00 0.00 0.00 85 1012.9
20260901033035 71 283 1.7 7.0 0.00 0.00 0.00 85 1012.5
20260901031537 71 281 2.6 6.1 0.00 0.00 0.00 86 1012.5
20260901030034 71 259 5.2 9.6 0.00 0.00 0.00 85 1012.2
20260901024534 71 282 4.3 10.4 0.00 0.00 0.00 85 1012.1